Location: ????????
(55.0559°N, 39.1270°E)
Time: 07:33:47
(UTC+00:00)

Cosmos 2297 - Pass Details

Date: 15 November 2025
Orbit: 836 x 856 km, 71.0° (Epoch: 14 December)

Event Time Altitude Azimuth Distance (km) Brightness Sun altitude
Exits shadow 01:53:56 32° 341° (NNW) 1,419 4.7 -25.7°
Maximum altitude 01:56:33 64° 51° (NE) 933 4.0 -25.3°
Drops below altitude 10° 02:02:07 10° 133° (SE) 2,450 6.7 -24.5°
Sets 02:04:35 0° 137° (SE) 3,380 7.4 -24.1°
